EST,Max TemperatureF,Mean TemperatureF,Min TemperatureF,Max Dew PointF,MeanDew PointF,Min DewpointF,Max Humidity, Mean Humidity, Min Humidity, Max Sea Level PressureIn, Mean Sea Level PressureIn, Min Sea Level PressureIn, Max VisibilityMiles, Mean VisibilityMiles, Min VisibilityMiles, Max Wind SpeedMPH, Mean Wind SpeedMPH, Max Gust SpeedMPH,PrecipitationIn, CloudCover, Events, WindDirDegrees
2014-2-1,66,51,35,38,26,16,59,38,17,30.12,30.03,29.91,10,10,10,16,5,22,0.00,5,,154
2014-2-2,55,44,32,48,40,30,100,76,51,30.17,30.03,29.93,10,4,1,14,6,20,1.01,8,Rain-Snow,302
2014-2-3,33,31,29,31,28,25,92,89,85,30.35,30.20,30.01,7,4,0,13,6,18,0.75,8,Fog-Rain-Snow,349
2014-2-4,33,31,29,31,29,25,92,89,85,30.35,30.14,29.89,7,4,2,15,6,21,0.53,8,Rain,38
2014-2-5,36,31,26,34,29,19,96,84,72,30.33,29.95,29.68,10,5,1,18,9,29,0.96,8,Rain-Snow,263
2014-2-6,28,26,24,21,19,17,88,76,63,30.45,30.39,30.32,10,7,2,10,4,12,0.01,8,Snow,294
2014-2-7,29,25,20,18,15,12,77,67,57,30.46,30.40,30.37,10,8,1,9,5,14,T,6,Snow,321
2014-2-8,30,24,18,24,18,10,85,76,67,30.35,30.27,30.14,10,6,1,7,3,9,0.02,8,Snow,49
2014-2-9,34,30,26,31,26,20,92,81,69,30.22,30.11,30.03,10,6,1,15,4,26,0.03,8,Rain-Snow,255
2014-2-10,28,22,15,23,15,8,92,71,50,30.40,30.28,30.19,10,8,2,9,5,14,0.02,4,Snow,331
2014-2-11,30,20,9,10,7,5,83,61,39,30.47,30.43,30.38,10,9,4,9,4,12,0.00,0,,13
2014-2-12,36,24,12,25,14,6,80,64,47,30.40,30.18,29.97,10,9,3,12,5,14,T,3,Snow,46
2014-2-13,44,35,26,28,24,11,92,64,35,29.97,29.81,29.69,10,5,0,15,6,19,0.28,6,Fog-Snow,343
2014-2-14,49,40,31,31,23,15,64,52,39,29.77,29.69,29.62,10,9,1,18,7,22,0.02,4,Rain-Snow,261
2014-2-15,33,28,22,31,19,16,92,80,68,30.17,29.99,29.64,10,6,1,18,8,26,0.13,8,Snow,295
2014-2-16,36,28,20,26,22,16,92,78,64,30.31,30.11,30.02,10,8,2,15,7,22,0.01,8,Snow,239
2014-2-17,49,35,20,41,24,14,81,63,45,30.32,30.09,29.82,10,9,6,29,8,45,0.09,5,Rain,112
2014-2-18,58,48,38,31,26,20,76,50,24,30.17,30.05,29.89,10,10,10,22,8,33,0.00,1,,207
2014-2-19,61,51,41,50,36,26,93,61,28,30.10,29.91,29.76,10,10,6,22,9,33,0.12,3,Rain,237
2014-2-20,73,54,34,52,41,29,79,62,44,30.06,29.86,29.60,10,10,10,24,9,37,T,2,,164
2014-2-21,69,54,38,54,35,15,93,62,30,30.05,29.83,29.57,10,8,2,25,12,39,0.94,5,Rain,234
2014-2-22,63,50,36,25,19,14,48,33,17,30.14,30.04,29.96,10,10,10,15,6,23,0.00,0,,208
2014-2-23,55,44,33,36,30,24,96,69,41,30.15,30.06,29.97,10,8,1,28,6,31,0.10,4,Rain-Snow,331
2014-2-24,40,32,24,28,17,10,84,57,30,30.28,30.22,30.15,10,10,10,15,7,20,0.00,2,,277
2014-2-25,38,33,27,21,17,13,75,59,43,30.20,30.14,30.05,10,9,2,13,5,17,T,7,Snow,331
2014-2-26,31,26,20,25,15,3,88,61,34,30.14,30.03,29.91,10,6,1,14,7,25,0.04,5,Snow,298
2014-2-27,36,27,18,9,4,-7,56,38,19,30.17,29.97,29.86,10,10,10,21,10,29,0.00,0,,274
2014-2-28,39,26,12,7,5,1,67,47,26,30.30,30.21,30.13,10,10,10,9,5,12,0.00,0,,44